Weather in Platonovka

Russia / Tambov Oblast     52°42′57″N   41°57′24″E
temp.,
°C
wind,
m/s
gust,
m/s
humid.,
%
clouds,
%
prec.,
mm/h
press.,
hPa
HPBL,
m
7 march, sun
sun700:00−12wnw469413 0.0 101692
03:00−13w34947 0.0 101664
06:00−13sw449789 0.0 101686
09:00−10sw5109187 0.1 1014361
12:00−6sw8148698 0.0 1011913
15:00−3sw10177899 0.1 10071129
18:00−3sw91876100 0.0 10031178
21:00−3sw101894100 1.4 9991144
8 march, mon
mon800:00−2wsw111894100 0.8 9981185
03:00−5w6138497 1.3 1001479
06:00−8wsw511880 0.0 1002245
09:00−6wsw510875 0.0 1003539
12:00−3wsw7108599 0.1 10021128
15:00−2w71176100 0.4 10031384
18:00−6w5108573 0.1 1004245
21:00−8wnw479270 0.1 1007143
9 march, tue
tue900:00−12wnw34930 0.0 100836
03:00−14wnw23960 0.0 101020
06:00−15nw23970 0.0 101220
09:00−12nw249524 0.0 1013203
12:00−8nw358595 0.0 1014590
15:00−8nw468397 0.0 1014779
18:00−12nw3792100 0.1 1015140
21:00−14nw369596 0.1 1018115
10 march, wed
wed1000:00−16nw359779 0.0 1019104
03:00−18nw349880 0.1 102049
06:00−20nw349847 0.0 102271
09:00−19nnw489338 0.0 1024359
12:00−16nnw468681 0.0 1025584
15:00−15nnw468075 0.0 1026636
18:00−19nw34910 0.0 102654
21:00−21nw23970 0.0 102920
11 march, thu
thu1100:00−23nw22990 0.0 102920
03:00−23nw22990 0.0 103120
06:00−23wnw12970 0.0 103120
09:00−19w12850 0.0 1032124
12:00−13wsw23650 0.0 1031435
15:00−12ssw44800 0.0 1031394
18:00−17ssw34880 0.0 103039
21:00−19ssw44840 0.0 103158